PSLV R/B, 43287

Orbit data source: Space-Track

PSLV R/B, 43287 is space debris in HEO originally from a launch on Wed, 11 Apr 2018 UTC launched from the Sirharikota (SRI). Debris objects in space refer to the collection of defunct objects orbiting the Earth. Examples of debris include non-operational satellites, rocket bodies, and fragments generated from explosions, collisions, or faulty payload assembly.

Loading next visibility...
Identifier
43287, 2018-035B
Orbit
HEO
Country
Flag of ININ / IND
Related business
Manufacturer
VSSC/LPSC
Mission
Spacecraft
Bus & Motor
PS-4, Unknown motor
Mass
920 kg wet, 920 kg dry
Launch date (UTC)
2018-04-11 (7 years ago)
Launch vehicle
Unknown
Launch site
Sirharikota (SRI)
Object type
Payload
Rocket body
Debris
Shape & HBR
Cyl + Cyl + 2 Nozzle, 1.6 m
Radar Cross Section
6.185 m², Large (>1 m²)

Expand to show TLE details & history
Last TLE update: 1 day ago

TLE from 1 day ago
0 PSLV R/B
1 43287U 18035B   25259.46022910  .00009044  00000-0  95682-3 0  9998
2 43287  19.0809 343.8205 5649507  72.5940 339.4213  4.60729829113503
Epoch: 2025-09-16T11:02Z
TLE epoch observation values (Epoch: 2025-09-16T11:02:43.794Z)
Latitude
-0.00001°
Longitude
-177.50251°
Altitude
2,505.847 km
Speed
7.975 km/s
True Right ascension
22h 55m 19s
True Declination
0° 00' 00"
Sunlit
Object was in full shadow at epoch
Visualization orbit readout
Latitude
Unknown
Longitude
Unknown
Altitude
Unknown
Speed
Unknown
Apparent Right ascension
Unknown
Apparent Declination
Unknown
Sunlit
N/A
Visualization observer readout
Local Sidereal Time
14:47:39
Azimuth
Unknown
Elevation
Unknown
Doppler factor
Unknown
Orbital elements
Apogee altitude
17,503.352 km
Perigee altitude
260.81 km
Semi-major axis
15,260.218 km
Eccentricity
0.56495
Inclination
19.0809°
RAAN
343.8205°
Arg. of periapsis
72.594°
True anomaly
287.30666°
Mean anomaly
339.4213°
Eccentric anomaly
317.59075°
Mean motion
1.15134 °/min
Orbital period
312.68 mins
BSTAR
0.00095682
Loading maneuver chart data...
Computing Atmospheric mass density...
Loading historical data...
Loading historical data...
Loading historical data...
Loading historical data...
Loading historical data...
Loading historical data...
Loading historical data...
Other satellites on launch #35 in the year 2018 (2018-04-11 UTC)

Documentation

Showing up to 5 results
|